STARLINK-31890, 59785

Orbit data source: Space-Track

STARLINK-31890, 59785 is a payload satellite owned by SpaceX/Seattle (US) in LEO that was launched on Sat, 18 May 2024 UTC via an FALCON 9 launch vehicle from the Air Force Eastern Test Range (AFETR). Payload-class satellites include a variety of spacecraft equipped with specific instruments for various scientific and technological missions. These include communications satellites like Starlink; space stations such as the ISS; scientific satellites like the Hubble; Earth observation satellites from companies like Planet Labs, Umbra, and HawkEye 360; GPS; miniature CubeSats for education and research; and military/defense satellites.

Loading next visibility...
Identifier
59785, 2024-093D
Orbit
LEO
Last TLE update
10 hours ago
Origin
Manufacturer
SpaceX/Seattle
Mission
Operational spacecraft
Bus & Motor
STARLINK V2M, Unknown motor
Mass
730 kg wet, ~700 kg dry
Launch date (UTC)
2024-05-18 (1 year ago)
Launch vehicle
FALCON 9
Launch site
Air Force Eastern Test Range (AFETR)
Object type
Payload
Rocket body
Debris
Shape & HBR
Unknown
Radar Cross Section
Large (>1 m²)

Expand to show TLE details & history

TLE from 10 hours ago
0 STARLINK-31890
1 59785U 24093D   25128.97940867 -.00048145  00000-0 -17358-2 0  9990
2 59785  43.0030 126.3056 0003066 324.8836  35.1813 15.27867647 56115
Epoch: 2025-05-08T23:30Z
Definitive object data (Epoch: 2025-05-08T23:30:20.909Z)
Latitude
-0.00003°
Longitude
-93.32369°
Altitude
480.245 km
Speed
7.628 km/s
True Right ascension
08h 25m 13s
True Declination
0° 00' 00"
Sunlit
Object was in daylight at TLE epoch
Visualization TLE readout
Latitude
23.56801°
Longitude
-67.85676°
Altitude
481.211 km
Speed
7.629 km/s
Apparent Right ascension
08h 01m 35s
Apparent Declination
-8° 28' 49"
Sunlit
Object is in daylight
Visualization observer readout
Local Sidereal Time
17:13:46
Azimuth
298.491° NW
Elevation
-41.207°
Doppler factor
1
Orbital elements
Apogee altitude
486.237 km
Perigee altitude
482.029 km
Semi-major axis
6,862.27 km
Eccentricity
0.0003066
Inclination
43.003°
RAAN
126.3056°
Arg. of periapsis
324.8836°
True anomaly
35.20155°
Mean anomaly
35.1813°
Eccentric anomaly
35.19142°
Mean motion
3.81805 °/min
BSTAR
-0.0017358
Orbital period
94.29 mins
Loading maneuver chart data...
Loading SW <> Apogee altitude chart data...
Loading historical data...
Loading historical data...
Loading historical data...
Loading historical data...
Loading historical data...
Loading historical data...
Loading historical data...

STARLINK-31890 Visibility forecast

Observer location: undefined°, undefined°

Span
Click to sort rows by Start time (UTC) header in descending order
Start Az.
Max El. time (UTC)
Max El. Az.
Max El.
End time (UTC)
End Az.
5 mins2025-05-09 09:25:30.625Z265.644° W2025-05-09 09:28:30.625Z206.011° SW22.221°2025-05-09 09:30:30.625Z166.549° S
4 mins2025-05-10 02:23:30.625Z174.692° S2025-05-10 02:24:30.625Z150.786° SSE21.881°2025-05-10 02:27:30.625Z93.523° ESE
5 mins2025-05-10 04:01:30.625Z253.312° W2025-05-10 04:03:30.625Z54.278° ENE44.632°2025-05-10 04:06:30.625Z71.5° E
5 mins2025-05-10 05:40:30.625Z293.068° NW2025-05-10 05:42:30.625Z1.941° NNE37.972°2025-05-10 05:45:30.625Z74.459° E
5 mins2025-05-10 07:19:30.625Z289.972° WNW2025-05-10 07:21:30.625Z330.36° NNW44.728°2025-05-10 07:24:30.625Z105.945° ESE
4 mins2025-05-10 08:58:30.625Z254.226° W2025-05-10 09:00:30.625Z207.621° SW22.854°2025-05-10 09:02:30.625Z166.541° S
|